• In Deutschland
  • Länderverzeichnis
  • Für 7 Tage
  • Wassertemperatur
  • Satellitenkarten
  • Wetterkarte
  • Widgets
  • user-avatar
    Anmelden

    Stündliche Wetter Kos

    Heute, 21 Mai, Montag

    Zeit Temperatur Niederschläge Wind Luftdruck Luftfeuchtigkeit
    00:00 +25°C° 0 mm 3 m/S 760 mmHg 65%
    01:00 +25°C° 0 mm 3 m/S 760 mmHg 65%
    02:00 +24°C° 0 mm 3 m/S 760 mmHg 67%
    03:00 +24°C° 0 mm 3 m/S 760 mmHg 67%
    04:00 +24°C° 0 mm 3 m/S 760 mmHg 68%
    05:00 +23°C° 0 mm 2 m/S 760 mmHg 69%
    06:00 +25°C° 0 mm 2 m/S 760 mmHg 62%
    07:00 +27°C° 0 mm 2 m/S 760 mmHg 56%
    08:00 +30°C° 0 mm 1 m/S 760 mmHg 49%
    09:00 +32°C° 0 mm 1 m/S 760 mmHg 44%
    10:00 +34°C° 0 mm 2 m/S 760 mmHg 38%
    11:00 +36°C° 0 mm 2 m/S 760 mmHg 32%
    12:00 +36°C° 0 mm 2 m/S 760 mmHg 31%
    13:00 +36°C° 0 mm 2 m/S 760 mmHg 29%
    14:00 +37°C° 0 mm 2 m/S 759 mmHg 28%
    15:00 +36°C° 0 mm 2 m/S 759 mmHg 30%
    16:00 +35°C° 0 mm 2 m/S 759 mmHg 31%
    17:00 +34°C° 0 mm 2 m/S 759 mmHg 33%
    18:00 +31°C° 0 mm 2 m/S 759 mmHg 41%
    19:00 +29°C° 0 mm 2 m/S 759 mmHg 50%
    20:00 +27°C° 0 mm 1 m/S 759 mmHg 58%
    21:00 +26°C° 0 mm 1 m/S 759 mmHg 60%
    22:00 +25°C° 0 mm 1 m/S 760 mmHg 62%
    23:00 +25°C° 0 mm 1 m/S 760 mmHg 65%

    Morgen, 22 Mai, Dienstag

    Zeit Temperatur Niederschläge Wind Luftdruck Luftfeuchtigkeit
    00:00 +24°C° 0 mm 1 m/S 760 mmHg 66%
    01:00 +24°C° 0 mm 1 m/S 760 mmHg 67%
    02:00 +24°C° 0 mm 1 m/S 760 mmHg 68%
    03:00 +23°C° 0 mm 1 m/S 760 mmHg 68%
    04:00 +23°C° 0 mm 2 m/S 760 mmHg 68%
    05:00 +23°C° 0 mm 2 m/S 760 mmHg 68%
    06:00 +25°C° 0 mm 2 m/S 761 mmHg 63%
    07:00 +27°C° 0 mm 2 m/S 761 mmHg 57%
    08:00 +29°C° 0 mm 2 m/S 761 mmHg 51%
    09:00 +30°C° 0 mm 2 m/S 761 mmHg 48%
    10:00 +31°C° 0 mm 3 m/S 762 mmHg 44%
    11:00 +33°C° 0 mm 3 m/S 762 mmHg 41%
    12:00 +33°C° 0 mm 3 m/S 762 mmHg 41%
    13:00 +34°C° 0 mm 4 m/S 762 mmHg 41%
    14:00 +34°C° 0 mm 4 m/S 762 mmHg 41%
    15:00 +33°C° 0 mm 5 m/S 762 mmHg 46%
    16:00 +32°C° 0 mm 5 m/S 762 mmHg 50%
    17:00 +30°C° 0 mm 5 m/S 762 mmHg 55%
    18:00 +28°C° 0 mm 5 m/S 762 mmHg 61%
    19:00 +27°C° 0 mm 5 m/S 762 mmHg 67%
    20:00 +25°C° 0 mm 5 m/S 762 mmHg 73%
    21:00 +25°C° 0 mm 5 m/S 762 mmHg 74%
    22:00 +23°C° 0 mm 6 m/S 763 mmHg 75%
    23:00 +23°C° 0 mm 6 m/S 763 mmHg 75%

    übermorgen, 23 Mai, Mittwoch

    Zeit Temperatur Niederschläge Wind Luftdruck Luftfeuchtigkeit
    00:00 +22°C° 0 mm 6 m/S 763 mmHg 76%
    01:00 +22°C° 0 mm 6 m/S 763 mmHg 76%
    02:00 +22°C° 0 mm 6 m/S 762 mmHg 76%
    03:00 +21°C° 0 mm 6 m/S 762 mmHg 76%
    04:00 +21°C° 0 mm 5 m/S 762 mmHg 76%
    05:00 +21°C° 0 mm 5 m/S 762 mmHg 76%
    06:00 +23°C° 0 mm 5 m/S 762 mmHg 70%
    07:00 +26°C° 0 mm 5 m/S 762 mmHg 64%
    08:00 +28°C° 0 mm 5 m/S 762 mmHg 58%
    09:00 +29°C° 0 mm 5 m/S 762 mmHg 51%
    10:00 +32°C° 0 mm 6 m/S 763 mmHg 45%
    11:00 +34°C° 0 mm 6 m/S 763 mmHg 38%
    12:00 +34°C° 0 mm 6 m/S 762 mmHg 37%
    13:00 +34°C° 0 mm 7 m/S 762 mmHg 35%
    14:00 +35°C° 0 mm 7 m/S 762 mmHg 34%
    15:00 +34°C° 0 mm 7 m/S 762 mmHg 37%
    16:00 +33°C° 0 mm 7 m/S 762 mmHg 40%
    17:00 +32°C° 0 mm 6 m/S 761 mmHg 42%
    18:00 +29°C° 0 mm 6 m/S 761 mmHg 50%
    19:00 +27°C° 0 mm 6 m/S 761 mmHg 58%
    20:00 +24°C° 0 mm 6 m/S 761 mmHg 66%
    21:00 +23°C° 0 mm 6 m/S 761 mmHg 68%
    22:00 +22°C° 0 mm 6 m/S 761 mmHg 70%
    23:00 +22°C° 0 mm 5 m/S 761 mmHg 73%

    24 Mai, Donnerstag

    Zeit Temperatur Niederschläge Wind Luftdruck Luftfeuchtigkeit
    00:00 +22°C° 0 mm 5 m/S 761 mmHg 72%
    01:00 +21°C° 0 mm 5 m/S 760 mmHg 71%
    02:00 +21°C° 0 mm 5 m/S 760 mmHg 70%
    03:00 +21°C° 0 mm 5 m/S 760 mmHg 72%
    04:00 +21°C° 0 mm 5 m/S 760 mmHg 73%
    05:00 +20°C° 0 mm 5 m/S 760 mmHg 74%
    06:00 +22°C° 0 mm 5 m/S 760 mmHg 68%
    07:00 +25°C° 0 mm 5 m/S 760 mmHg 63%
    08:00 +27°C° 0 mm 5 m/S 760 mmHg 58%
    09:00 +29°C° 0 mm 5 m/S 760 mmHg 51%
    10:00 +30°C° 0 mm 5 m/S 760 mmHg 43%
    11:00 +33°C° 0 mm 5 m/S 760 mmHg 36%
    12:00 +33°C° 0 mm 5 m/S 759 mmHg 35%
    13:00 +34°C° 0 mm 6 m/S 759 mmHg 33%
    14:00 +34°C° 0 mm 6 m/S 758 mmHg 32%
    15:00 +33°C° 0 mm 6 m/S 758 mmHg 35%
    16:00 +33°C° 0 mm 6 m/S 758 mmHg 38%
    17:00 +32°C° 0 mm 6 m/S 757 mmHg 40%
    18:00 +29°C° 0 mm 6 m/S 757 mmHg 48%
    19:00 +27°C° 0 mm 6 m/S 757 mmHg 55%
    20:00 +24°C° 0 mm 6 m/S 758 mmHg 63%
    21:00 +23°C° 0 mm 6 m/S 757 mmHg 65%
    22:00 +23°C° 0 mm 6 m/S 757 mmHg 67%
    23:00 +23°C° 0 mm 6 m/S 757 mmHg 69%

    25 Mai, Freitag

    Zeit Temperatur Niederschläge Wind Luftdruck Luftfeuchtigkeit
    00:00 +22°C° 0 mm 6 m/S 757 mmHg 70%
    01:00 +22°C° 0 mm 6 m/S 757 mmHg 72%
    02:00 +21°C° 0 mm 6 m/S 756 mmHg 73%
    03:00 +21°C° 0 mm 6 m/S 756 mmHg 76%
    04:00 +20°C° 0 mm 7 m/S 756 mmHg 79%
    05:00 +20°C° 0 mm 7 m/S 756 mmHg 82%
    06:00 +21°C° 0 mm 7 m/S 756 mmHg 75%
    07:00 +23°C° 0 mm 7 m/S 756 mmHg 68%
    08:00 +24°C° 0 mm 7 m/S 756 mmHg 61%
    09:00 +27°C° 0 mm 7 m/S 756 mmHg 53%
    10:00 +29°C° 0 mm 7 m/S 756 mmHg 46%
    11:00 +30°C° 0 mm 7 m/S 756 mmHg 39%
    12:00 +32°C° 0 mm 7 m/S 756 mmHg 37%
    13:00 +33°C° 0 mm 8 m/S 756 mmHg 34%
    14:00 +34°C° 0 mm 8 m/S 755 mmHg 32%
    15:00 +34°C° 0 mm 9 m/S 755 mmHg 33%
    16:00 +33°C° 0 mm 9 m/S 755 mmHg 34%
    17:00 +33°C° 0 mm 10 m/S 755 mmHg 35%
    18:00 +31°C° 0 mm 10 m/S 755 mmHg 41%
    19:00 +28°C° 0 mm 10 m/S 756 mmHg 46%
    20:00 +27°C° 0 mm 10 m/S 756 mmHg 52%
    21:00 +26°C° 0 mm 10 m/S 756 mmHg 55%
    22:00 +24°C° 0 mm 10 m/S 756 mmHg 58%
    23:00 +23°C° 0 mm 9 m/S 756 mmHg 61%

    26 Mai, Samstag

    Zeit Temperatur Niederschläge Wind Luftdruck Luftfeuchtigkeit
    00:00 +22°C° 0 mm 9 m/S 755 mmHg 65%
    01:00 +22°C° 0 mm 9 m/S 755 mmHg 69%
    02:00 +21°C° 0 mm 9 m/S 755 mmHg 72%
    03:00 +21°C° 0 mm 9 m/S 755 mmHg 75%
    04:00 +20°C° 0 mm 8 m/S 755 mmHg 78%
    05:00 +20°C° 0 mm 8 m/S 755 mmHg 81%
    06:00 +21°C° 0 mm 8 m/S 756 mmHg 75%
    07:00 +23°C° 0 mm 8 m/S 756 mmHg 70%
    08:00 +24°C° 0 mm 7 m/S 756 mmHg 65%
    09:00 +27°C° 0 mm 7 m/S 756 mmHg 57%
    10:00 +28°C° 0 mm 7 m/S 756 mmHg 50%
    11:00 +30°C° 0 mm 7 m/S 756 mmHg 43%
    12:00 +30°C° 0 mm 7 m/S 756 mmHg 42%
    13:00 +32°C° 0 mm 7 m/S 756 mmHg 41%
    14:00 +32°C° 0 mm 7 m/S 756 mmHg 40%
    15:00 +32°C° 0 mm 7 m/S 756 mmHg 39%
    16:00 +33°C° 0 mm 7 m/S 756 mmHg 37%
    17:00 +33°C° 0 mm 8 m/S 756 mmHg 36%
    18:00 +30°C° 0 mm 7 m/S 756 mmHg 42%
    19:00 +29°C° 0 mm 6 m/S 756 mmHg 47%
    20:00 +27°C° 0 mm 6 m/S 756 mmHg 53%
    21:00 +26°C° 0 mm 6 m/S 756 mmHg 58%
    22:00 +24°C° 0 mm 6 m/S 757 mmHg 63%
    23:00 +23°C° 0 mm 6 m/S 757 mmHg 68%
    Mehr zeigen